Regional Weather Roundup
Issued by NWS

Home | Current Version | Previous Version | Graphics & Text | Print | Product List | Glossary Off
Versions: 1 2 3 4 5 6 7 8 9 10 11 12 13 14 15 16 17 18 19 20 21 22 23 24 25 26 27 28 29 30 31 32 33 34 35 36 37 38 39 40 41 42 43 44 45 46 47 48 49 50

000
ASUS43 KTOP 192108
RWRKS

WEATHER ROUNDUP FOR KANSAS
NATIONAL WEATHER SERVICE GOODLAND KS
400 PM CDT TUE AUG 19 2014

NOTE:  "FAIR" INDICATES FEW OR NO CLOUDS BELOW 12,000 FEET WITH NO
SIGNIFICANT WEATHER AND/OR OBSTRUCTIONS TO VISIBILITY.

KSZ001>006-013>018-027>032-041>047-192200-
NORTHWEST KANSAS

CITY           SKY/WX    TMP DP  RH WIND       PRES   REMARKS
GOODLAND       SUNNY     95  50  21 S13G24    29.82F
HAYS           PTSUNNY   97  61  30 S16       29.79F HX  97
HILL CITY      CLOUDY    95  63  34 SE16G22   29.78F HX  96
RUSSELL        PTSUNNY   94  61  33 SE17G25   29.78F
$$

KSZ061>065-074>080-084>089-192200-
SOUTHWEST KANSAS

CITY           SKY/WX    TMP DP  RH WIND       PRES   REMARKS
DODGE CITY     MOSUNNY   92  58  31 S17G23    29.84F
ELKHART          N/A     96  55  25 SE15        N/A
GARDEN CITY    PTSUNNY   93  55  27 S15G24    29.83F
GREAT BEND     SUNNY     97  61  30 S17G23    29.79F HX  97
LIBERAL        MOSUNNY   97  57  26 S17G25    29.85F HX  95
PRATT          MOSUNNY   95  59  30 S13G22    29.84F
$$

KSZ066>073-081>083-090>101-192200-
SOUTHEAST KANSAS

CITY           SKY/WX    TMP DP  RH WIND       PRES   REMARKS
CHANUTE        MOSUNNY   95  65  37 S9        29.82F HX  97
COFFEYVILLE    MOSUNNY   95  67  39 SW9       29.82F HX  99
HUTCHINSON     MOSUNNY   98  62  30 S15G24    29.81F HX  99
MEDICINE LODGE   N/A     95  64  35 S17G25    29.80F HX  97
NEWTON         MOSUNNY   95  63  34 SW14      29.86F HX  96
PARSONS        SUNNY     96  69  41 S10G18    29.83F HX 102
WICHITA INTL   MOSUNNY   96  64  34 S15G24    29.81F HX  98
WICHITA JABRA  MOSUNNY   94  66  39 S15G25    29.82F HX  97
WICHITA MCCONL MOSUNNY   93  67  41 S13       29.82F HX  96
WINFIELD       SUNNY     94  67  41 S16G23    29.84F HX  97
$$

KSZ007>012-019>026-033>040-048>060-102>105-192200-
NORTHEAST KANSAS

CITY           SKY/WX    TMP DP  RH WIND       PRES   REMARKS
CONCORDIA      SUNNY     90  70  51 S10       29.80F HX  95
EMPORIA        SUNNY     95  62  33 SE7       29.81F HX  96
LAWRENCE       SUNNY     97  71  42 CALM      29.80F HX 104
MANHATTAN      SUNNY     93  64  38 SE6       29.79F
MARYSVILLE     MOSUNNY   91  70  49 S8        29.80F HX  97
OLATHE IND     MOSUNNY   93  67  42 W6        29.82F HX  96
OLATHE EXE     SUNNY     91  70  49 S8        29.81F HX  96
SALINA         SUNNY     95  60  31 S12       29.79F HX  95
TOPEKA BILLARD SUNNY     95  72  47 SE8       29.80F HX 103
TOPEKA FORBES  SUNNY     95  64  35 VRB5      29.81F HX  97
$$


USA.gov is the U.S. government's official web portal to all federal, state and local government web resources and services.